When you browse on this site, cookies collect data to enhance your experience and personalize the content and advertising you see.
Visit our Privacy Policy to learn more. By continuing to use the site, you agree to this use of cookies and data.
  • Em Portugal
  • Lista de países
  • Para 7 dias
  • Temperatura da água
  • Mapa do tempo
  • Widgets de tempo
  • user-avatar
    Iniciar Sessão

    Previsão horária em Manises

    Hoje, 19 Novembro, Terça-feira

    Tempo Temperatura Precipitação Vento Pressão Humidade
    00:00 +6°C° 0 mm 2 m/s 757 mmHg 63%
    01:00 +5°C° 0 mm 3 m/s 757 mmHg 64%
    02:00 +5°C° 0 mm 3 m/s 757 mmHg 65%
    03:00 +4°C° 0 mm 3 m/s 757 mmHg 67%
    04:00 +4°C° 0 mm 3 m/s 757 mmHg 67%
    05:00 +4°C° 0 mm 3 m/s 757 mmHg 68%
    06:00 +4°C° 0 mm 2 m/s 757 mmHg 70%
    07:00 +6°C° 0 mm 2 m/s 758 mmHg 63%
    08:00 +8°C° 0 mm 2 m/s 758 mmHg 57%
    09:00 +9°C° 0 mm 2 m/s 758 mmHg 50%
    10:00 +12°C° 0 mm 2 m/s 757 mmHg 44%
    11:00 +14°C° 0 mm 2 m/s 757 mmHg 38%
    12:00 +15°C° 0 mm 2 m/s 757 mmHg 32%
    13:00 +16°C° 0 mm 2 m/s 756 mmHg 32%
    14:00 +16°C° 0 mm 3 m/s 756 mmHg 32%
    15:00 +17°C° 0 mm 3 m/s 755 mmHg 32%
    16:00 +14°C° 0 mm 3 m/s 755 mmHg 41%
    17:00 +13°C° 0 mm 2 m/s 756 mmHg 49%
    18:00 +10°C° 0 mm 2 m/s 756 mmHg 58%
    19:00 +10°C° 0 mm 2 m/s 756 mmHg 59%
    20:00 +9°C° 0 mm 2 m/s 756 mmHg 61%
    21:00 +9°C° 0 mm 2 m/s 756 mmHg 62%
    22:00 +9°C° 0 mm 2 m/s 756 mmHg 62%
    23:00 +8°C° 0 mm 2 m/s 756 mmHg 62%

    Amanhã, 20 Novembro, Quarta-feira

    Tempo Temperatura Precipitação Vento Pressão Humidade
    00:00 +8°C° 0 mm 2 m/s 756 mmHg 63%
    01:00 +8°C° 0 mm 2 m/s 755 mmHg 64%
    02:00 +8°C° 0 mm 2 m/s 755 mmHg 64%
    03:00 +8°C° 0 mm 2 m/s 755 mmHg 65%
    04:00 +7°C° 0 mm 2 m/s 755 mmHg 66%
    05:00 +7°C° 0 mm 2 m/s 754 mmHg 66%
    06:00 +7°C° 0 mm 2 m/s 754 mmHg 67%
    07:00 +9°C° 0 mm 2 m/s 754 mmHg 63%
    08:00 +11°C° 0 mm 1 m/s 754 mmHg 58%
    09:00 +12°C° 0 mm 1 m/s 755 mmHg 54%
    10:00 +14°C° 0 mm 1 m/s 754 mmHg 49%
    11:00 +15°C° 0 mm 2 m/s 753 mmHg 44%
    12:00 +16°C° 0 mm 2 m/s 753 mmHg 39%
    13:00 +17°C° 0 mm 2 m/s 752 mmHg 37%
    14:00 +17°C° 0 mm 3 m/s 752 mmHg 36%
    15:00 +17°C° 0 mm 3 m/s 752 mmHg 35%
    16:00 +15°C° 0 mm 2 m/s 752 mmHg 45%
    17:00 +13°C° 0 mm 2 m/s 752 mmHg 56%
    18:00 +11°C° 0 mm 1 m/s 752 mmHg 66%
    19:00 +11°C° 0 mm 1 m/s 752 mmHg 65%
    20:00 +10°C° 0 mm 2 m/s 753 mmHg 64%
    21:00 +10°C° 0 mm 2 m/s 753 mmHg 63%
    22:00 +10°C° 0 mm 3 m/s 753 mmHg 65%
    23:00 +9°C° 0 mm 3 m/s 753 mmHg 68%

    Depois de amanhã, 21 Novembro, Quinta-feira

    Tempo Temperatura Precipitação Vento Pressão Humidade
    00:00 +9°C° 0 mm 3 m/s 753 mmHg 70%
    01:00 +9°C° 0 mm 3 m/s 752 mmHg 73%
    02:00 +8°C° 0 mm 3 m/s 752 mmHg 75%
    03:00 +8°C° 0 mm 3 m/s 752 mmHg 78%
    04:00 +8°C° 0 mm 3 m/s 752 mmHg 79%
    05:00 +8°C° 0 mm 3 m/s 752 mmHg 80%
    06:00 +7°C° 0 mm 3 m/s 752 mmHg 81%
    07:00 +9°C° 0 mm 3 m/s 753 mmHg 76%
    08:00 +11°C° 0 mm 3 m/s 753 mmHg 70%
    09:00 +12°C° 0 mm 4 m/s 753 mmHg 65%
    10:00 +14°C° 0 mm 4 m/s 753 mmHg 58%
    11:00 +15°C° 0 mm 5 m/s 753 mmHg 52%
    12:00 +16°C° 0 mm 6 m/s 753 mmHg 45%
    13:00 +16°C° 0 mm 6 m/s 752 mmHg 45%
    14:00 +16°C° 0 mm 6 m/s 752 mmHg 45%
    15:00 +16°C° 0 mm 6 m/s 752 mmHg 45%
    16:00 +14°C° 0 mm 5 m/s 752 mmHg 50%
    17:00 +13°C° 0 mm 4 m/s 752 mmHg 55%
    18:00 +12°C° 0 mm 3 m/s 753 mmHg 60%
    19:00 +12°C° 0 mm 3 m/s 753 mmHg 61%
    20:00 +13°C° 0 mm 2 m/s 753 mmHg 62%
    21:00 +12°C° 0 mm 2 m/s 753 mmHg 63%
    22:00 +12°C° 0 mm 2 m/s 753 mmHg 66%
    23:00 +10°C° 0 mm 2 m/s 753 mmHg 68%

    22 Novembro, Sexta-feira

    Tempo Temperatura Precipitação Vento Pressão Humidade
    00:00 +10°C° 0 mm 2 m/s 752 mmHg 70%
    01:00 +11°C° 0 mm 1 m/s 752 mmHg 71%
    02:00 +11°C° 0 mm 1 m/s 752 mmHg 71%
    03:00 +12°C° 0 mm 1 m/s 751 mmHg 71%
    04:00 +12°C° 0 mm 1 m/s 751 mmHg 71%
    05:00 +12°C° 0 mm 1 m/s 751 mmHg 72%
    06:00 +12°C° 0 mm 1 m/s 750 mmHg 72%
    07:00 +13°C° 0 mm 1 m/s 750 mmHg 72%
    08:00 +13°C° 0 mm 1 m/s 750 mmHg 71%
    09:00 +13°C° 0 mm 1 m/s 750 mmHg 71%
    10:00 +14°C° 0 mm 1 m/s 749 mmHg 69%
    11:00 +15°C° 0 mm 1 m/s 749 mmHg 67%
    12:00 +15°C° 0 mm 2 m/s 748 mmHg 65%
    13:00 +16°C° 0 mm 2 m/s 747 mmHg 66%
    14:00 +16°C° 0 mm 2 m/s 746 mmHg 66%
    15:00 +16°C° 0 mm 2 m/s 744 mmHg 66%
    16:00 +15°C° 0.8 mm 2 m/s 744 mmHg 72%
    17:00 +15°C° 0.8 mm 2 m/s 744 mmHg 78%
    18:00 +14°C° 0.8 mm 2 m/s 744 mmHg 84%
    19:00 +13°C° 0.5 mm 3 m/s 744 mmHg 82%
    20:00 +13°C° 0.5 mm 4 m/s 744 mmHg 80%
    21:00 +13°C° 0.5 mm 5 m/s 745 mmHg 77%
    22:00 +13°C° 0 mm 6 m/s 745 mmHg 75%
    23:00 +12°C° 0 mm 7 m/s 745 mmHg 73%

    23 Novembro, Sábado

    Tempo Temperatura Precipitação Vento Pressão Humidade
    00:00 +11°C° 0 mm 8 m/s 745 mmHg 72%
    01:00 +11°C° 0 mm 8 m/s 745 mmHg 71%
    02:00 +11°C° 0 mm 7 m/s 745 mmHg 71%
    03:00 +10°C° 0 mm 7 m/s 745 mmHg 71%
    04:00 +10°C° 0 mm 8 m/s 745 mmHg 69%
    05:00 +10°C° 0 mm 9 m/s 745 mmHg 68%
    06:00 +9°C° 0 mm 10 m/s 745 mmHg 66%
    07:00 +9°C° 0.1 mm 10 m/s 746 mmHg 64%
    08:00 +11°C° 0.1 mm 11 m/s 746 mmHg 62%
    09:00 +11°C° 0.1 mm 11 m/s 746 mmHg 60%
    10:00 +12°C° 0 mm 11 m/s 747 mmHg 52%
    11:00 +14°C° 0 mm 10 m/s 747 mmHg 45%
    12:00 +16°C° 0 mm 9 m/s 747 mmHg 37%
    13:00 +16°C° 0 mm 8 m/s 748 mmHg 37%
    14:00 +16°C° 0 mm 8 m/s 748 mmHg 37%
    15:00 +16°C° 0 mm 7 m/s 749 mmHg 37%
    16:00 +14°C° 0 mm 6 m/s 750 mmHg 41%
    17:00 +11°C° 0 mm 6 m/s 751 mmHg 46%
    18:00 +10°C° 0 mm 5 m/s 752 mmHg 50%
    19:00 +9°C° 0 mm 5 m/s 752 mmHg 52%
    20:00 +9°C° 0 mm 5 m/s 753 mmHg 54%
    21:00 +9°C° 0 mm 5 m/s 754 mmHg 55%
    22:00 +9°C° 0 mm 5 m/s 754 mmHg 56%
    23:00 +8°C° 0 mm 5 m/s 755 mmHg 57%

    24 Novembro, Domingo

    Tempo Temperatura Precipitação Vento Pressão Humidade
    00:00 +8°C° 0 mm 5 m/s 755 mmHg 57%
    01:00 +8°C° 0 mm 4 m/s 755 mmHg 59%
    02:00 +7°C° 0 mm 4 m/s 755 mmHg 60%
    03:00 +7°C° 0 mm 4 m/s 755 mmHg 62%
    04:00 +7°C° 0 mm 4 m/s 756 mmHg 62%
    05:00 +7°C° 0 mm 4 m/s 756 mmHg 62%
    06:00 +7°C° 0 mm 4 m/s 757 mmHg 62%
    07:00 +8°C° 0 mm 4 m/s 757 mmHg 58%
    08:00 +10°C° 0 mm 4 m/s 758 mmHg 54%
    09:00 +12°C° 0 mm 4 m/s 758 mmHg 50%
    10:00 +14°C° 0 mm 4 m/s 758 mmHg 44%
    11:00 +15°C° 0 mm 4 m/s 758 mmHg 38%
    12:00 +18°C° 0 mm 4 m/s 758 mmHg 32%
    13:00 +18°C° 0 mm 3 m/s 758 mmHg 32%
    14:00 +19°C° 0 mm 3 m/s 758 mmHg 32%
    15:00 +19°C° 0 mm 3 m/s 758 mmHg 31%
    16:00 +17°C° 0 mm 3 m/s 758 mmHg 36%
    17:00 +14°C° 0 mm 3 m/s 758 mmHg 42%
    18:00 +12°C° 0 mm 3 m/s 759 mmHg 47%
    19:00 +11°C° 0 mm 3 m/s 759 mmHg 49%
    20:00 +11°C° 0 mm 3 m/s 759 mmHg 51%
    21:00 +10°C° 0 mm 3 m/s 759 mmHg 52%
    22:00 +10°C° 0 mm 3 m/s 759 mmHg 52%
    23:00 +10°C° 0 mm 3 m/s 759 mmHg 52%
    Mostrar mais